Home > Weather > Hiroshima > Past weeks

Flag for Japan Weather for the Past 2 Weeks in Hiroshima, Japan

Now
46 °F

Passing clouds.


Feels Like: 43 °F
Forecast: 22 / 55 °F
Wind: 6 mph from Northeast

Location: Iwakuni Marine Corps Air Station

Current Time: Feb 10, 2016 at 11:45:36 AM

Latest Report: Feb 10, 2016 at 10:55 AM


Visibility: N/A

Pressure: 30.31 "Hg

Humidity: 63%

Dew point: 34 °F

Location of HiroshimaLocation

Historic Weather in Hiroshima — Graph

°F

Hiroshima Temperature Yesterday

Maximum temperature yesterday: 52 °F (at 2:55 PM)
Minimum temperature yesterday: 38 °F (at 11:55 PM)
Average temperature yesterday: 46 °F

High & Low Weather Summary for the Past Weeks

 TemperatureHumidityPressure
High53 °F (Jan 27, 1:55 PM)97% (Jan 28, 6:55 PM)30.43 "Hg (Jan 28, 6:55 PM)
Low33 °F (Feb 10, 6:55 AM)23% (Feb 9, 2:55 PM)29.96 "Hg (Feb 9, 4:55 AM)
Average45 °F70%30.17 "Hg
* Reported Jan 26 9:55 AM — Feb 10 9:55 AM, Hiroshima, Weather by CustomWeather, © 2016

Note: Actual official high and low records may vary slightly from our data, if they occured in-between our weather recording intervals... More about our weather records

Advertising

Hiroshima Weather History for the Previous 24 Hours

 ConditionsComfort  
Time TempWeatherWind HumidityBarometerVisibility
9:55 AM
Wed, Feb 10
42 °FPassing clouds.5 mph68%30.31 "HgN/A
8:55 AM38 °FPassing clouds.7 mph73%30.29 "HgN/A
7:55 AM34 °FSunny.6 mph79%30.27 "HgN/A
6:55 AM33 °FPassing clouds.9 mph72%30.26 "HgN/A
5:55 AM34 °FPassing clouds.6 mph70%30.24 "HgN/A
4:55 AM35 °FPassing clouds.7 mph67%30.23 "HgN/A
3:55 AM36 °FPassing clouds.7 mph62%30.22 "HgN/A
2:55 AM36 °FPassing clouds.6 mph62%30.21 "HgN/A
1:55 AM36 °FPassing clouds.8 mph62%30.21 "HgN/A
12:55 AM37 °FPassing clouds.9 mph62%30.20 "HgN/A
11:55 PM
Tue, Feb 9
38 °FPassing clouds.6 mph58%30.20 "HgN/A
10:55 PM39 °FPassing clouds.6 mph55%30.21 "HgN/A
9:55 PM40 °FPassing clouds.6 mph51%30.20 "HgN/A
8:55 PM41 °FPassing clouds.3 mph49%30.19 "HgN/A
7:55 PM44 °FPassing clouds.3 mph38%30.18 "HgN/A
6:55 PM45 °FPassing clouds.7 mph35%30.16 "HgN/A
5:55 PM46 °FPassing clouds.10 mph31%30.14 "HgN/A
4:55 PM49 °FScattered clouds.12 mph29%30.10 "HgN/A
3:55 PM51 °FPassing clouds.14 mph25%30.07 "HgN/A
2:55 PM52 °FPassing clouds.16 mph23%30.05 "HgN/A
1:55 PM51 °FScattered clouds.22 mph26%30.05 "HgN/A
12:55 PM51 °FScattered clouds.23 mph26%30.04 "HgN/A
11:55 AM50 °FScattered clouds.16 mph32%30.03 "HgN/A
Weather by CustomWeather, © 2016

See weather overviewHow to use our weather pages